| time (UTC) | temp C | wind direction | speed KPH | gust KPH | rain 1hr cm | rain 24hr cm | rain mn cm | humidity % | barometer mb |
| 20260505140553 | 20 | 55 | 1.6 | 3.2 | 0.00 | 0.00 | 0.00 | 72 | 1018.3 |
| 20260505125007 | 17 | 46 | 3.2 | 4.8 | 0.00 | 0.00 | 0.00 | 76 | 1018.3 |
| 20260505124503 | 17 | 65 | 1.6 | 3.2 | 0.00 | 0.00 | 0.00 | 77 | 1018.5 |
| 20260505124000 | 17 | 326 | 1.6 | 3.2 | 0.00 | 0.00 | 0.00 | 77 | 1018.3 |
| 20260505123456 | 17 | 316 | 0.0 | 1.6 | 0.00 | 0.00 | 0.00 | 78 | 1018.5 |
| 20260505122952 | 16 | 345 | 1.6 | 11.3 | 0.00 | 0.00 | 0.00 | 79 | 1018.4 |
| 20260505122450 | 16 | 328 | 0.0 | 4.8 | 0.00 | 0.00 | 0.00 | 79 | 1018.4 |
| 20260505121946 | 16 | 323 | 0.0 | 1.6 | 0.00 | 0.00 | 0.00 | 79 | 1018.4 |
| 20260505121443 | 16 | 343 | 0.0 | 0.0 | 0.00 | 0.00 | 0.00 | 81 | 1018.5 |
| 20260505120939 | 15 | 329 | 0.0 | 1.6 | 0.00 | 0.00 | 0.00 | 82 | 1018.4 |
| 20260505120436 | 15 | 6 | 0.0 | 0.0 | 0.00 | 0.00 | 0.00 | 82 | 1018.3 |
| 20260505115935 | 15 | 330 | 0.0 | 0.0 | 0.00 | 0.00 | 0.00 | 84 | 1018.4 |
| 20260505115432 | 15 | 277 | 0.0 | 0.0 | 0.00 | 0.00 | 0.00 | 86 | 1018.1 |
| 20260505114930 | 14 | 235 | 0.0 | 0.0 | 0.00 | 0.00 | 0.00 | 90 | 1018.3 |
| 20260505114426 | 13 | 235 | 0.0 | 0.0 | 0.00 | 0.00 | 0.00 | 92 | 1018.3 |
| 20260505113922 | 12 | 235 | 0.0 | 0.0 | 0.00 | 0.00 | 0.00 | 94 | 1018.4 |
| 20260505113419 | 12 | 236 | 0.0 | 0.0 | 0.00 | 0.00 | 0.00 | 98 | 1018.1 |
| 20260505112915 | 11 | 236 | 0.0 | 0.0 | 0.00 | 0.00 | 0.00 | 99 | 1018.0 |
| 20260505112413 | 11 | 236 | 0.0 | 0.0 | 0.00 | 0.00 | 0.00 | 99 | 1018.1 |
| 20260505111908 | 10 | 236 | 0.0 | 0.0 | 0.00 | 0.00 | 0.00 | 99 | 1018.0 |
| 20260505111403 | 10 | 236 | 0.0 | 0.0 | 0.00 | 0.00 | 0.00 | 99 | 1018.1 |
| 20260505110859 | 9 | 236 | 0.0 | 0.0 | 0.00 | 0.00 | 0.00 | 99 | 1017.9 |
| 20260505110357 | 9 | 236 | 0.0 | 0.0 | 0.00 | 0.00 | 0.00 | 99 | 1017.8 |
| 20260505101827 | 9 | 236 | 0.0 | 0.0 | 0.00 | 0.00 | 0.00 | 99 | 1017.5 |
| 20260505101322 | 9 | 236 | 0.0 | 0.0 | 0.00 | 0.00 | 0.00 | 99 | 1017.3 |
| 20260505100818 | 9 | 236 | 0.0 | 0.0 | 0.00 | 0.00 | 0.00 | 98 | 1017.4 |
| 20260505100315 | 9 | 236 | 0.0 | 0.0 | 0.00 | 0.00 | 0.00 | 98 | 1017.2 |
| 20260505095811 | 9 | 236 | 0.0 | 0.0 | 0.00 | 0.00 | 0.00 | 98 | 1017.1 |
| 20260505095309 | 9 | 236 | 0.0 | 0.0 | 0.00 | 0.00 | 0.00 | 98 | 1017.1 |
| 20260505094804 | 10 | 236 | 0.0 | 0.0 | 0.00 | 0.00 | 0.00 | 98 | 1017.1 |
| 20260505094301 | 10 | 236 | 0.0 | 0.0 | 0.00 | 0.00 | 0.00 | 97 | 1017.1 |
| 20260505093757 | 10 | 236 | 0.0 | 0.0 | 0.00 | 0.00 | 0.00 | 97 | 1017.2 |
| 20260505093255 | 10 | 236 | 0.0 | 0.0 | 0.00 | 0.00 | 0.00 | 97 | 1017.3 |
| 20260505092751 | 10 | 236 | 0.0 | 0.0 | 0.00 | 0.00 | 0.00 | 96 | 1016.9 |
| 20260505092250 | 10 | 236 | 0.0 | 0.0 | 0.00 | 0.00 | 0.00 | 96 | 1017.2 |
| 20260505091747 | 10 | 236 | 0.0 | 0.0 | 0.00 | 0.00 | 0.00 | 95 | 1017.2 |
| 20260505091245 | 10 | 236 | 0.0 | 0.0 | 0.00 | 0.00 | 0.00 | 95 | 1017.1 |
| 20260505090742 | 10 | 236 | 0.0 | 0.0 | 0.00 | 0.00 | 0.00 | 94 | 1017.1 |
| 20260505090240 | 10 | 236 | 0.0 | 0.0 | 0.00 | 0.00 | 0.00 | 94 | 1017.0 |
| 20260505085737 | 10 | 236 | 0.0 | 0.0 | 0.00 | 0.00 | 0.00 | 93 | 1017.0 |
| 20260505085236 | 11 | 236 | 0.0 | 0.0 | 0.00 | 0.00 | 0.00 | 93 | 1017.0 |
| 20260505084732 | 11 | 236 | 0.0 | 0.0 | 0.00 | 0.00 | 0.00 | 92 | 1017.0 |
| 20260505084232 | 11 | 236 | 0.0 | 0.0 | 0.00 | 0.00 | 0.00 | 92 | 1016.8 |
| 20260505083728 | 11 | 236 | 0.0 | 0.0 | 0.00 | 0.00 | 0.00 | 90 | 1016.7 |
| 20260505083225 | 11 | 236 | 0.0 | 0.0 | 0.00 | 0.00 | 0.00 | 90 | 1016.9 |
| 20260505082721 | 11 | 236 | 0.0 | 0.0 | 0.00 | 0.00 | 0.00 | 89 | 1017.0 |
| 20260505082218 | 12 | 236 | 0.0 | 0.0 | 0.00 | 0.00 | 0.00 | 88 | 1016.8 |
| 20260505081713 | 12 | 236 | 0.0 | 0.0 | 0.00 | 0.00 | 0.00 | 88 | 1016.8 |
| 20260505081211 | 12 | 236 | 0.0 | 0.0 | 0.00 | 0.00 | 0.00 | 87 | 1016.7 |
| 20260505080708 | 12 | 236 | 0.0 | 0.0 | 0.00 | 0.00 | 0.00 | 87 | 1016.5 |
| 20260505080204 | 12 | 236 | 0.0 | 0.0 | 0.00 | 0.00 | 0.00 | 86 | 1016.5 |
| 20260505075700 | 12 | 236 | 0.0 | 0.0 | 0.00 | 0.00 | 0.00 | 86 | 1016.7 |
| 20260505075157 | 12 | 236 | 0.0 | 0.0 | 0.00 | 0.00 | 0.00 | 85 | 1016.6 |
| 20260505074654 | 12 | 236 | 0.0 | 0.0 | 0.00 | 0.00 | 0.00 | 84 | 1016.6 |
| 20260505074151 | 12 | 235 | 0.0 | 0.0 | 0.00 | 0.00 | 0.00 | 84 | 1016.7 |
| 20260505073649 | 13 | 238 | 0.0 | 0.0 | 0.00 | 0.00 | 0.00 | 84 | 1016.7 |
| 20260505073147 | 13 | 257 | 0.0 | 1.6 | 0.00 | 0.00 | 0.00 | 84 | 1016.5 |
| 20260505072642 | 13 | 261 | 0.0 | 1.6 | 0.00 | 0.00 | 0.00 | 84 | 1016.6 |
| 20260505072139 | 13 | 277 | 0.0 | 1.6 | 0.00 | 0.00 | 0.00 | 84 | 1016.6 |
| 20260505071634 | 13 | 251 | 0.0 | 1.6 | 0.00 | 0.00 | 0.00 | 84 | 1016.7 |
| 20260505071132 | 13 | 271 | 0.0 | 1.6 | 0.00 | 0.00 | 0.00 | 83 | 1016.6 |
| 20260505070629 | 13 | 316 | 0.0 | 1.6 | 0.00 | 0.00 | 0.00 | 83 | 1016.6 |
| 20260505070125 | 13 | 287 | 0.0 | 1.6 | 0.00 | 0.00 | 0.00 | 83 | 1016.4 |
| 20260505065622 | 13 | 292 | 0.0 | 0.0 | 0.00 | 0.00 | 0.00 | 83 | 1016.6 |
| 20260505065118 | 13 | 292 | 0.0 | 0.0 | 0.00 | 0.00 | 0.00 | 82 | 1016.5 |
| 20260505064615 | 13 | 269 | 0.0 | 0.0 | 0.00 | 0.00 | 0.00 | 82 | 1016.5 |
| 20260505064114 | 13 | 269 | 0.0 | 0.0 | 0.00 | 0.00 | 0.00 | 82 | 1016.5 |
| 20260505063611 | 13 | 270 | 0.0 | 0.0 | 0.00 | 0.00 | 0.00 | 81 | 1016.5 |
| 20260505063106 | 13 | 312 | 0.0 | 0.0 | 0.00 | 0.00 | 0.00 | 81 | 1016.6 |
| 20260505062603 | 13 | 260 | 0.0 | 0.0 | 0.00 | 0.00 | 0.00 | 81 | 1016.3 |
| 20260505062100 | 13 | 246 | 0.0 | 0.0 | 0.00 | 0.00 | 0.00 | 80 | 1016.6 |
| 20260505061558 | 14 | 270 | 0.0 | 0.0 | 0.00 | 0.00 | 0.00 | 80 | 1016.6 |
| 20260505061056 | 14 | 225 | 0.0 | 0.0 | 0.00 | 0.00 | 0.00 | 79 | 1016.5 |
| 20260505060553 | 14 | 225 | 0.0 | 1.6 | 0.00 | 0.00 | 0.00 | 79 | 1016.5 |
| 20260505060050 | 14 | 326 | 0.0 | 0.0 | 0.00 | 0.00 | 0.00 | 79 | 1016.6 |
| 20260505055545 | 14 | 304 | 0.0 | 0.0 | 0.00 | 0.00 | 0.00 | 78 | 1016.6 |
| 20260505055042 | 14 | 59 | 3.2 | 3.2 | 0.00 | 0.00 | 0.00 | 78 | 1016.6 |
| 20260505054539 | 15 | 232 | 0.0 | 1.6 | 0.00 | 0.00 | 0.00 | 78 | 1016.6 |
| 20260505054037 | 15 | 257 | 0.0 | 1.6 | 0.00 | 0.00 | 0.00 | 77 | 1016.6 |
| 20260505053534 | 15 | 293 | 0.0 | 0.0 | 0.00 | 0.00 | 0.00 | 77 | 1016.7 |
| 20260505053031 | 15 | 321 | 0.0 | 3.2 | 0.00 | 0.00 | 0.00 | 76 | 1016.7 |
| 20260505052527 | 15 | 345 | 0.0 | 0.0 | 0.00 | 0.00 | 0.00 | 76 | 1017.0 |
| 20260505052025 | 15 | 275 | 3.2 | 4.8 | 0.00 | 0.00 | 0.00 | 76 | 1016.7 |
| 20260505051522 | 15 | 345 | 0.0 | 0.0 | 0.00 | 0.00 | 0.00 | 75 | 1016.8 |
| 20260505051020 | 15 | 322 | 1.6 | 1.6 | 0.00 | 0.00 | 0.00 | 75 | 1016.9 |
| 20260505050518 | 15 | 323 | 0.0 | 1.6 | 0.00 | 0.00 | 0.00 | 74 | 1017.0 |
| 20260505041445 | 16 | 88 | 1.6 | 4.8 | 0.00 | 0.00 | 0.00 | 71 | 1016.7 |
| 20260505040943 | 16 | 66 | 0.0 | 1.6 | 0.00 | 0.00 | 0.00 | 71 | 1016.9 |
| 20260505040440 | 16 | 64 | 0.0 | 3.2 | 0.00 | 0.00 | 0.00 | 71 | 1017.0 |
| 20260505035937 | 16 | 90 | 1.6 | 8.0 | 0.00 | 0.00 | 0.00 | 70 | 1016.9 |
| 20260505035433 | 17 | 330 | 0.0 | 1.6 | 0.00 | 0.00 | 0.00 | 70 | 1017.0 |
| 20260505034930 | 17 | 100 | 0.0 | 3.2 | 0.00 | 0.00 | 0.00 | 70 | 1017.0 |
| 20260505034426 | 17 | 343 | 3.2 | 4.8 | 0.00 | 0.00 | 0.00 | 69 | 1016.9 |
| 20260505033924 | 17 | 66 | 3.2 | 9.7 | 0.00 | 0.00 | 0.00 | 69 | 1016.7 |
| 20260505033420 | 17 | 3 | 0.0 | 1.6 | 0.00 | 0.00 | 0.00 | 69 | 1016.8 |
| 20260505032919 | 17 | 21 | 1.6 | 8.0 | 0.00 | 0.00 | 0.00 | 69 | 1016.9 |
| 20260505032415 | 17 | 61 | 1.6 | 9.7 | 0.00 | 0.00 | 0.00 | 68 | 1016.9 |
| 20260505031912 | 17 | 18 | 0.0 | 3.2 | 0.00 | 0.00 | 0.00 | 68 | 1016.8 |
| 20260505031409 | 17 | 354 | 1.6 | 9.7 | 0.00 | 0.00 | 0.00 | 68 | 1016.8 |
| 20260505030906 | 17 | 13 | 0.0 | 1.6 | 0.00 | 0.00 | 0.00 | 67 | 1017.0 |
| 20260505030401 | 17 | 68 | 3.2 | 4.8 | 0.00 | 0.00 | 0.00 | 67 | 1016.7 |
| 20260505025857 | 17 | 30 | 0.0 | 1.6 | 0.00 | 0.00 | 0.00 | 67 | 1016.9 |
| 20260505025355 | 18 | 72 | 3.2 | 3.2 | 0.00 | 0.00 | 0.00 | 66 | 1016.8 |
| 20260505024854 | 18 | 19 | 4.8 | 8.0 | 0.00 | 0.00 | 0.00 | 66 | 1016.8 |
| 20260505024351 | 18 | 4 | 1.6 | 8.0 | 0.00 | 0.00 | 0.00 | 66 | 1016.7 |
| 20260505023848 | 18 | 78 | 3.2 | 3.2 | 0.00 | 0.00 | 0.00 | 66 | 1016.7 |
| 20260505023345 | 18 | 70 | 1.6 | 4.8 | 0.00 | 0.00 | 0.00 | 66 | 1016.7 |
| 20260505022842 | 18 | 88 | 4.8 | 9.7 | 0.00 | 0.00 | 0.00 | 66 | 1016.6 |
| 20260505022339 | 18 | 344 | 0.0 | 8.0 | 0.00 | 0.00 | 0.00 | 66 | 1016.6 |
| 20260505021836 | 18 | 25 | 3.2 | 11.3 | 0.00 | 0.00 | 0.00 | 66 | 1016.8 |
| 20260505021333 | 18 | 332 | 1.6 | 8.0 | 0.00 | 0.00 | 0.00 | 66 | 1016.7 |
| 20260505020828 | 18 | 338 | 1.6 | 3.2 | 0.00 | 0.00 | 0.00 | 65 | 1016.6 |
| 20260505020324 | 19 | 57 | 1.6 | 8.0 | 0.00 | 0.00 | 0.00 | 65 | 1016.6 |
| 20260505015821 | 19 | 84 | 8.0 | 9.7 | 0.00 | 0.00 | 0.00 | 64 | 1016.7 |
| 20260505015318 | 19 | 59 | 4.8 | 8.0 | 0.00 | 0.00 | 0.00 | 64 | 1016.4 |
| 20260505014816 | 19 | 331 | 0.0 | 8.0 | 0.00 | 0.00 | 0.00 | 64 | 1016.3 |
| 20260505014312 | 19 | 47 | 0.0 | 1.6 | 0.00 | 0.00 | 0.00 | 64 | 1016.5 |
| 20260505013809 | 19 | 4 | 1.6 | 9.7 | 0.00 | 0.00 | 0.00 | 63 | 1016.4 |
| 20260505013306 | 20 | 252 | 1.6 | 4.8 | 0.00 | 0.00 | 0.00 | 62 | 1016.2 |
| 20260505012805 | 20 | 294 | 0.0 | 8.0 | 0.00 | 0.00 | 0.00 | 62 | 1016.2 |
| 20260505012304 | 20 | 323 | 3.2 | 3.2 | 0.00 | 0.00 | 0.00 | 60 | 1016.0 |
| 20260505011757 | 20 | 313 | 0.0 | 3.2 | 0.00 | 0.00 | 0.00 | 59 | 1016.0 |
| 20260505011255 | 20 | 335 | 3.2 | 4.8 | 0.00 | 0.00 | 0.00 | 58 | 1015.9 |
| 20260505010750 | 20 | 84 | 4.8 | 8.0 | 0.00 | 0.00 | 0.00 | 56 | 1015.8 |
| 20260505010246 | 20 | 81 | 1.6 | 8.0 | 0.00 | 0.00 | 0.00 | 53 | 1015.8 |
| 20260505005742 | 20 | 99 | 3.2 | 4.8 | 0.00 | 0.00 | 0.00 | 52 | 1015.5 |
| 20260505005235 | 20 | 306 | 0.0 | 0.0 | 0.00 | 0.00 | 0.00 | 52 | 1015.3 |
| 20260505004732 | 20 | 306 | 0.0 | 0.0 | 0.00 | 0.00 | 0.00 | 51 | 1015.4 |
| 20260505004228 | 20 | 60 | 1.6 | 1.6 | 0.00 | 0.00 | 0.00 | 51 | 1015.2 |
| 20260505003725 | 20 | 6 | 0.0 | 1.6 | 0.00 | 0.00 | 0.00 | 51 | 1015.3 |
| 20260505003223 | 20 | 343 | 0.0 | 0.0 | 0.00 | 0.00 | 0.00 | 50 | 1015.3 |
| 20260505002719 | 20 | 9 | 1.6 | 1.6 | 0.00 | 0.00 | 0.00 | 49 | 1015.2 |
| 20260505002217 | 20 | 356 | 0.0 | 1.6 | 0.00 | 0.00 | 0.00 | 49 | 1015.1 |
| 20260505001714 | 20 | 333 | 0.0 | 0.0 | 0.00 | 0.00 | 0.00 | 49 | 1014.9 |
| 20260505001212 | 21 | 50 | 0.0 | 1.6 | 0.00 | 0.00 | 0.00 | 48 | 1015.1 |
| 20260505000708 | 21 | 93 | 3.2 | 3.2 | 0.00 | 0.00 | 0.00 | 47 | 1015.1 |
| 20260505000206 | 21 | 102 | 0.0 | 4.8 | 0.00 | 0.00 | 0.00 | 47 | 1015.1 |
| 20260504235703 | 21 | 320 | 0.0 | 0.0 | 0.00 | 0.00 | 0.00 | 46 | 1015.1 |
| 20260504235158 | 22 | 349 | 0.0 | 0.0 | 0.00 | 0.00 | 0.00 | 46 | 1014.9 |
| 20260504234656 | 22 | 267 | 0.0 | 3.2 | 0.00 | 0.00 | 0.00 | 45 | 1014.9 |
| 20260504234153 | 22 | 316 | 1.6 | 3.2 | 0.00 | 0.00 | 0.00 | 44 | 1014.8 |
| 20260504233649 | 22 | 66 | 1.6 | 3.2 | 0.00 | 0.00 | 0.00 | 44 | 1014.7 |
| 20260504233145 | 23 | 2 | 0.0 | 1.6 | 0.00 | 0.00 | 0.00 | 44 | 1014.7 |
| 20260504232643 | 23 | 294 | 0.0 | 3.2 | 0.00 | 0.00 | 0.00 | 43 | 1014.8 |
| 20260504232140 | 23 | 116 | 0.0 | 4.8 | 0.00 | 0.00 | 0.00 | 42 | 1014.7 |
| 20260504231636 | 24 | 264 | 0.0 | 1.6 | 0.00 | 0.00 | 0.00 | 41 | 1014.5 |
| 20260504231133 | 25 | 77 | 1.6 | 3.2 | 0.00 | 0.00 | 0.00 | 39 | 1014.6 |
| 20260504230629 | 25 | 75 | 1.6 | 4.8 | 0.00 | 0.00 | 0.00 | 40 | 1014.6 |
| 20260504230128 | 25 | 61 | 1.6 | 3.2 | 0.00 | 0.00 | 0.00 | 38 | 1014.4 |
| 20260504225626 | 25 | 89 | 1.6 | 4.8 | 0.00 | 0.00 | 0.00 | 38 | 1014.5 |
| 20260504225121 | 25 | 93 | 1.6 | 8.0 | 0.00 | 0.00 | 0.00 | 37 | 1014.5 |
| 20260504224618 | 25 | 112 | 1.6 | 8.0 | 0.00 | 0.00 | 0.00 | 39 | 1014.5 |
| 20260504224114 | 25 | 93 | 1.6 | 4.8 | 0.00 | 0.00 | 0.00 | 38 | 1014.4 |
| 20260504223612 | 25 | 67 | 4.8 | 9.7 | 0.00 | 0.00 | 0.00 | 37 | 1014.6 |
| 20260504223107 | 26 | 83 | 4.8 | 8.0 | 0.00 | 0.00 | 0.00 | 36 | 1014.4 |
| 20260504222604 | 26 | 61 | 1.6 | 3.2 | 0.00 | 0.00 | 0.00 | 37 | 1014.4 |
| 20260504222101 | 26 | 358 | 4.8 | 8.0 | 0.00 | 0.00 | 0.00 | 36 | 1014.5 |
| 20260504221559 | 26 | 4 | 0.0 | 8.0 | 0.00 | 0.00 | 0.00 | 36 | 1014.5 |
| 20260504221055 | 26 | 39 | 3.2 | 4.8 | 0.00 | 0.00 | 0.00 | 36 | 1014.4 |
| 20260504220552 | 26 | 55 | 1.6 | 3.2 | 0.00 | 0.00 | 0.00 | 36 | 1014.4 |
| 20260504220049 | 26 | 331 | 1.6 | 4.8 | 0.00 | 0.00 | 0.00 | 35 | 1014.4 |
| 20260504215545 | 26 | 12 | 1.6 | 8.0 | 0.00 | 0.00 | 0.00 | 36 | 1014.4 |
| 20260504215043 | 27 | 94 | 1.6 | 4.8 | 0.00 | 0.00 | 0.00 | 35 | 1014.4 |
| 20260504214538 | 27 | 105 | 1.6 | 3.2 | 0.00 | 0.00 | 0.00 | 34 | 1014.5 |
| 20260504214035 | 27 | 5 | 1.6 | 3.2 | 0.00 | 0.00 | 0.00 | 35 | 1014.3 |
| 20260504213532 | 27 | 60 | 3.2 | 8.0 | 0.00 | 0.00 | 0.00 | 34 | 1014.6 |
| 20260504213029 | 27 | 290 | 1.6 | 8.0 | 0.00 | 0.00 | 0.00 | 33 | 1014.4 |
| 20260504212525 | 27 | 98 | 4.8 | 8.0 | 0.00 | 0.00 | 0.00 | 31 | 1014.5 |
| 20260504212022 | 27 | 19 | 1.6 | 3.2 | 0.00 | 0.00 | 0.00 | 33 | 1014.4 |
| 20260504211519 | 27 | 22 | 1.6 | 3.2 | 0.00 | 0.00 | 0.00 | 33 | 1014.5 |
| 20260504211017 | 26 | 83 | 1.6 | 4.8 | 0.00 | 0.00 | 0.00 | 32 | 1014.6 |
| 20260504210513 | 27 | 7 | 1.6 | 8.0 | 0.00 | 0.00 | 0.00 | 32 | 1014.6 |
| 20260504210010 | 27 | 70 | 3.2 | 8.0 | 0.00 | 0.00 | 0.00 | 33 | 1014.4 |
| 20260504205509 | 27 | 352 | 1.6 | 8.0 | 0.00 | 0.00 | 0.00 | 31 | 1014.4 |
| 20260504205006 | 27 | 72 | 3.2 | 9.7 | 0.00 | 0.00 | 0.00 | 32 | 1014.7 |
| 20260504204503 | 26 | 292 | 1.6 | 8.0 | 0.00 | 0.00 | 0.00 | 32 | 1014.5 |
| 20260504204002 | 27 | 132 | 4.8 | 8.0 | 0.00 | 0.00 | 0.00 | 30 | 1014.6 |
| 20260504203500 | 27 | 54 | 4.8 | 8.0 | 0.00 | 0.00 | 0.00 | 31 | 1014.6 |
| 20260504202956 | 27 | 336 | 0.0 | 4.8 | 0.00 | 0.00 | 0.00 | 33 | 1014.6 |
| 20260504202452 | 27 | 79 | 4.8 | 9.7 | 0.00 | 0.00 | 0.00 | 29 | 1014.7 |
| 20260504201949 | 26 | 20 | 3.2 | 9.7 | 0.00 | 0.00 | 0.00 | 33 | 1014.9 |
| 20260504201446 | 26 | 103 | 8.0 | 11.3 | 0.00 | 0.00 | 0.00 | 30 | 1014.7 |
| 20260504200944 | 26 | 317 | 4.8 | 14.5 | 0.00 | 0.00 | 0.00 | 30 | 1014.9 |
| 20260504200440 | 27 | 248 | 1.6 | 3.2 | 0.00 | 0.00 | 0.00 | 32 | 1015.0 |
| 20260504195937 | 26 | 82 | 4.8 | 8.0 | 0.00 | 0.00 | 0.00 | 31 | 1015.0 |
| 20260504195433 | 26 | 9 | 1.6 | 4.8 | 0.00 | 0.00 | 0.00 | 32 | 1014.7 |
| 20260504194930 | 27 | 18 | 3.2 | 11.3 | 0.00 | 0.00 | 0.00 | 33 | 1014.9 |
| 20260504194426 | 27 | 82 | 3.2 | 3.2 | 0.00 | 0.00 | 0.00 | 29 | 1015.1 |
| 20260504193922 | 26 | 24 | 1.6 | 3.2 | 0.00 | 0.00 | 0.00 | 30 | 1014.9 |
| 20260504193419 | 26 | 357 | 4.8 | 8.0 | 0.00 | 0.00 | 0.00 | 30 | 1015.0 |
| 20260504192918 | 26 | 357 | 6.4 | 11.3 | 0.00 | 0.00 | 0.00 | 31 | 1015.3 |
| 20260504192415 | 26 | 61 | 1.6 | 3.2 | 0.00 | 0.00 | 0.00 | 32 | 1015.2 |
| 20260504191914 | 26 | 305 | 3.2 | 3.2 | 0.00 | 0.00 | 0.00 | 35 | 1015.4 |
| 20260504191411 | 26 | 73 | 3.2 | 3.2 | 0.00 | 0.00 | 0.00 | 36 | 1015.3 |
| 20260504190906 | 26 | 101 | 1.6 | 3.2 | 0.00 | 0.00 | 0.00 | 34 | 1015.3 |
| 20260504190402 | 26 | 86 | 6.4 | 14.5 | 0.00 | 0.00 | 0.00 | 35 | 1015.5 |
| 20260504185859 | 25 | 354 | 3.2 | 9.7 | 0.00 | 0.00 | 0.00 | 34 | 1015.8 |
| 20260504185356 | 26 | 63 | 4.8 | 9.7 | 0.00 | 0.00 | 0.00 | 35 | 1015.5 |
| 20260504184852 | 25 | 352 | 0.0 | 3.2 | 0.00 | 0.00 | 0.00 | 40 | 1015.6 |
| 20260504184348 | 25 | 51 | 3.2 | 8.0 | 0.00 | 0.00 | 0.00 | 35 | 1015.7 |
| 20260504183844 | 26 | 71 | 1.6 | 8.0 | 0.00 | 0.00 | 0.00 | 37 | 1015.6 |
| 20260504183342 | 26 | 319 | 0.0 | 3.2 | 0.00 | 0.00 | 0.00 | 38 | 1015.5 |
| 20260504182839 | 25 | 304 | 3.2 | 8.0 | 0.00 | 0.00 | 0.00 | 38 | 1015.7 |
| 20260504182337 | 25 | 5 | 1.6 | 8.0 | 0.00 | 0.00 | 0.00 | 37 | 1015.7 |
| 20260504181833 | 26 | 44 | 3.2 | 11.3 | 0.00 | 0.00 | 0.00 | 37 | 1015.9 |
| 20260504181331 | 25 | 326 | 1.6 | 3.2 | 0.00 | 0.00 | 0.00 | 39 | 1015.8 |
| 20260504180830 | 25 | 115 | 3.2 | 14.5 | 0.00 | 0.00 | 0.00 | 36 | 1015.8 |
| 20260504180328 | 25 | 16 | 1.6 | 11.3 | 0.00 | 0.00 | 0.00 | 38 | 1015.7 |
| 20260504175825 | 25 | 69 | 4.8 | 4.8 | 0.00 | 0.00 | 0.00 | 39 | 1015.8 |
| 20260504175322 | 25 | 173 | 3.2 | 4.8 | 0.00 | 0.00 | 0.00 | 43 | 1016.1 |
| 20260504174820 | 25 | 8 | 4.8 | 8.0 | 0.00 | 0.00 | 0.00 | 39 | 1015.9 |
| 20260504174317 | 24 | 39 | 3.2 | 3.2 | 0.00 | 0.00 | 0.00 | 39 | 1016.1 |
| 20260504173814 | 25 | 7 | 3.2 | 8.0 | 0.00 | 0.00 | 0.00 | 40 | 1016.3 |
| 20260504173311 | 24 | 74 | 3.2 | 3.2 | 0.00 | 0.00 | 0.00 | 43 | 1016.3 |
| 20260504172808 | 24 | 22 | 1.6 | 9.7 | 0.00 | 0.00 | 0.00 | 41 | 1016.3 |
| 20260504172304 | 23 | 67 | 4.8 | 8.0 | 0.00 | 0.00 | 0.00 | 42 | 1016.5 |
| 20260504171801 | 24 | 161 | 4.8 | 9.7 | 0.00 | 0.00 | 0.00 | 40 | 1016.4 |
| 20260504171258 | 23 | 55 | 6.4 | 8.0 | 0.00 | 0.00 | 0.00 | 40 | 1016.6 |
| 20260504170755 | 23 | 15 | 3.2 | 4.8 | 0.00 | 0.00 | 0.00 | 44 | 1016.5 |
| 20260504170252 | 23 | 87 | 6.4 | 8.0 | 0.00 | 0.00 | 0.00 | 47 | 1016.6 |
| 20260504160210 | 22 | 54 | 3.2 | 8.0 | 0.00 | 0.00 | 0.00 | 51 | 1017.5 |
| 20260504151138 | 20 | 341 | 3.2 | 8.0 | 0.00 | 0.00 | 0.00 | 59 | 1017.6 |
| 20260504150635 | 19 | 17 | 3.2 | 9.7 | 0.00 | 0.00 | 0.00 | 59 | 1017.7 |
| 20260504150132 | 19 | 22 | 4.8 | 9.7 | 0.00 | 0.00 | 0.00 | 62 | 1017.6 |